Regional Weather Roundup
Issued by NWS

Home | Current Version | Previous Version | Text Only | Print | Product List | Glossary On
Versions: 1 2 3 4 5 6 7 8 9 10 11 12 13 14 15 16 17 18 19 20 21 22 23 24 25 26 27 28 29 30 31 32 33 34 35 36 37 38 39 40 41 42 43 44 45 46 47 48 49 50
000
ASUS46 KSTO 180415
RWRCA

NORTHERN AND CENTRAL CA REGIONAL WEATHER ROUNDUP
NATIONAL WEATHER SERVICE SACRAMENTO CA
900 PM PDT TUE OCT 17 2017

NOTE: FAIR INDICATES FEW OR NO CLOUDS BELOW 12,000 FEET WITH NO
SIGNIFICANT WEATHER AND/OR OBSTRUCTIONS TO VISIBILITY.

CAZ001-003-180500-
NORTHWEST AREA

CITY           SKY/WX    TMP DP  RH WIND       PRES   REMARKS
CRESCENT CITY  CLEAR     49  48  97 S3        30.14S
UKIAH          CLEAR     55  36  48 CALM      30.05F
$$

CAZ006-505>513-180500-
BAY AREA

CITY           SKY/WX    TMP DP  RH WIND       PRES   REMARKS
SANTA ROSA     MOCLDY    50  45  83 CALM      30.04S
SAN RAFAEL     N/A       64  MM  MM MISG
NAPA           PTCLDY    58  45  62 S7        30.04F
CONCORD        CLEAR     62  45  53 SE3       30.04S
OAKLAND CITY   N/A      MM  MM  MM MISG
OAKLAND        PTCLDY    55  52  89 CALM      30.06S
SAN FRAN CITY  N/A       52  MM  85 MISG
SAN FRAN ARPT  PTCLDY    53  47  79 W13       30.06S
LIVERMORE      PTCLDY    59  39  47 CALM      30.04S
HAYWARD        PTCLDY    57  49  74 NW5       30.06S
REDWOOD CITY   N/A       57  MM  71 MISG
MOFFETT ARPT   PTCLDY    58  48  69 CALM      30.07S
SAN JOSE ARPT  PTCLDY    63  50  62 CALM      30.06S
$$
CAZ034-037-514>518-180500-
CENTRAL COAST

CITY           SKY/WX    TMP DP  RH WIND       PRES   REMARKS
SALINAS        MOCLDY    56  53  90 W7        30.06S
MONTEREY       MOCLDY    55  52  89 CALM      30.08R
SAN LUIS OBISP CLOUDY    66  53  63 CALM      29.99F
SANTA MARIA    MOCLDY    64  54  69 SW3       30.00F
$$
CAZ015-016-180500-
NORTHERN SACRAMENTO VALLEY

CITY           SKY/WX    TMP DP  RH WIND       PRES   REMARKS
REDDING        CLEAR     62  33  33 CALM      30.03R
RED BLUFF      CLEAR     57  36  45 W6        30.04R
OROVILLE       PTCLDY    61  38  42 N3        30.05R
$$
CAZ016>018-180500-
SOUTHERN SACRAMENTO VALLEY

CITY           SKY/WX    TMP DP  RH WIND       PRES   REMARKS
AUBURN         PTCLDY    64 N/A N/A E7        30.08S
BEALE AFB      CLEAR     62  32  32 E7        30.01R
LINCOLN        FAIR      52  36  54 E5        30.02R
MARYSVILLE     PTCLDY    57  40  52 CALM      30.03R
SAC INTL ARPT  PTCLDY    58  39  49 E3        30.01S
MATHER AIRPORT CLOUDY    59  37  44 CALM      30.02S
DOWNTOWN SAC   N/A       63  MM  MM MISG
SAC EXEC ARPT  PTCLDY    59  48  67 CALM      30.02S
VACAVILLE      PTCLDY    62  38  40 SW5       30.02F
TRAVIS AFB     CLEAR     60  37  43 SW12      30.00F
$$
CAZ019>021-180500-
SAN JOAQUIN VALLEY

CITY           SKY/WX    TMP DP  RH WIND       PRES   REMARKS
STOCKTON       PTCLDY    58  39  49 W5        30.03R
MODESTO        MOCLDY    63  46  54 NW3       30.02S
MERCED         CLOUDY    66  44  45 CALM      30.01S
LEMOORE        MOCLDY    70  40  33 NW6       30.03R
FRESNO         MOCLDY    69  46  43 W3        30.03R
HANFORD        MOCLDY    69  45  41 NW6       30.02S
PORTERVILLE    PTCLDY    63  45  51 SW5       30.04R
BAKERSFIELD    PTCLDY    72  40  31 NE5       30.03R
$$
CAZ011-012-071-180500-
NORTHERN MOUNTAINS

CITY           SKY/WX    TMP DP  RH WIND       PRES   REMARKS
YREKA          CLEAR     54  22  28 NE5       30.13S
MOUNT SHASTA   CLEAR     48  30  49 NE3       30.16R
ALTURAS        CLEAR     47  26  44 CALM      30.19R
$$
CAZ011-012-071-180500-
SIERRA NEVADA MTNS

CITY           SKY/WX    TMP DP  RH WIND       PRES   REMARKS
BLUE CANYON    CLEAR     57  23  26 E5        30.25F
TRUCKEE        CLEAR     36  19  51 CALM      30.28S
TAHOE VLY ARPT CLEAR     39  23  52 CALM      30.29R
MAMMOTH LAKES  FAIR      50  29  43 CALM      30.32R
$$




USA.gov is the U.S. government's official web portal to all federal, state and local government web resources and services.